Wind_Speed
39 38 37 37 36 36 35 35 35 35 35 35 35 35 35 35 36 36 37 37 38 38 39 40 40 41 41 42 42 43 43 43 44 44 44 44 45 45 46 46 47 48 49
39 39 38 37 37 36 36 36 36 37 37 37 37 36 36 37 37 38 38 39 39 40 41 41 42 42 43 43 44 44 44 45 45 46 46 46 46 46 47 48 49 49 50
40 40 39 38 37 37 37 37 37 38 38 38 38 38 38 38 38 38 39 40 41 41 42 42 43 44 44 44 44 45 45 46 47 47 48 49 49 49 49 49 50 50 51
41 41 40 40 39 38 38 39 39 39 39 39 39 39 39 39 39 40 40 41 41 42 42 43 44 44 45 45 45 45 46 48 48 49 49 50 51 52 52 51 51 51 51
42 41 41 40 40 40 39 40 40 40 39 40 40 40 40 40 41 41 41 42 42 43 43 44 44 45 45 46 47 47 48 49 49 49 50 51 52 52 53 52 51 51 51
42 41 41 41 41 40 40 40 40 40 40 40 41 41 41 42 42 43 43 43 44 44 45 45 45 46 46 47 48 48 49 49 50 51 52 52 52 53 53 53 52 51 51
43 42 42 41 41 41 41 41 41 41 41 42 42 42 43 43 44 44 45 45 45 45 46 46 47 47 48 48 49 50 50 50 51 51 52 52 53 53 54 54 53 51 50
43 43 42 42 42 42 42 42 42 42 43 43 43 44 44 45 46 46 46 46 46 46 47 47 48 49 49 50 50 50 51 50 51 51 51 52 52 53 54 53 53 52 51
43 43 43 42 42 42 43 43 43 43 44 44 44 45 45 45 46 46 47 47 48 48 48 49 49 50 50 50 50 50 51 50 51 51 51 51 52 53 53 52 53 53 52
42 42 42 42 42 43 43 43 43 43 44 44 44 44 44 45 45 46 47 48 48 48 49 49 50 50 49 50 50 50 50 50 50 50 51 52 52 53 52 52 52 52 52
40 40 41 41 41 42 42 43 43 43 44 44 44 44 45 45 45 46 46 47 48 49 49 49 50 49 49 49 50 50 50 51 50 51 52 52 52 51 51 50 50 50 51
40 40 40 40 41 41 41 42 42 43 43 44 44 45 45 45 45 46 46 47 47 48 48 48 48 48 48 49 49 49 50 50 51 51 51 51 50 49 49 49 50 50 50
40 39 39 40 40 40 41 41 42 42 43 43 44 44 45 45 45 45 46 46 46 46 46 46 46 47 47 47 47 48 48 49 49 49 49 48 48 48 48 49 48 48 48
40 39 39 39 40 40 40 41 41 41 42 42 43 43 44 44 44 45 44 45 45 45 44 44 44 45 45 45 45 46 47 48 48 48 47 46 47 47 47 47 46 46 46
39 39 39 40 40 40 40 40 40 41 41 42 43 43 44 44 44 43 44 44 44 43 43 43 43 43 43 44 45 46 47 47 47 46 46 46 46 45 45 45 45 45 45
40 40 40 40 40 40 40 39 40 40 40 41 42 42 42 42 42 43 43 43 43 42 43 43 43 43 43 43 44 44 45 44 44 44 45 45 44 44 44 44 44 44 43
38 39 39 40 40 40 40 40 40 39 39 40 41 41 41 41 41 42 43 42 42 42 42 43 43 43 43 43 44 44 44 44 44 44 44 43 43 43 43 43 42 42 41
37 38 38 38 39 39 40 40 40 40 39 40 40 40 40 40 42 42 42 43 42 42 43 43 42 42 42 43 44 44 44 43 43 43 42 42 42 42 42 41 41 40 40
37 37 38 38 38 38 39 39 40 40 40 40 40 40 40 41 42 42 42 42 42 42 42 42 42 41 42 43 43 43 42 42 41 41 41 42 41 41 41 41 40 39 38
38 38 37 37 37 37 38 39 39 39 40 40 40 40 40 40 41 41 41 41 41 41 41 41 41 41 41 42 41 41 41 40 40 40 40 41 40 40 40 40 39 38 37
38 38 38 38 37 37 37 38 38 38 39 39 39 39 39 39 39 39 39 40 40 41 40 40 40 40 40 40 39 40 40 40 39 39 38 38 38 37 38 38 37 36 35
36 37 37 37 37 37 37 37 37 37 38 38 38 39 39 38 38 38 39 39 39 39 39 39 38 37 37 37 37 38 38 38 38 37 37 36 36 36 36 36 35 34 34
36 36 36 36 36 36 37 37 37 37 37 38 38 38 38 38 38 38 37 37 37 37 37 36 36 36 36 36 37 37 37 37 37 36 35 34 34 34 35 34 34 33 33
34 34 34 35 35 35 35 36 36 36 37 37 37 37 37 36 36 36 36 36 36 36 35 35 35 35 35 36 36 35 35 34 33 33 33 33 33 33 33 31 31 31 30
33 33 34 34 35 35 35 35 36 36 36 36 35 35 35 35 35 35 35 35 35 34 34 34 34 34 34 35 34 32 31 31 31 31 32 32 32 31 30 29 29 28 27
32 33 33 34 34 35 35 35 35 35 35 34 34 34 34 34 34 34 34 34 33 33 32 32 32 32 32 31 30 30 30 30 30 30 30 30 29 28 28 27 26 25 24
Wind_Direction
240 241 241 242 243 245 246 246 248 250 252 254 256 258 260 262 263 265 266 267 268 268 269 269 270 271 271 272 273 274 274 276 276 277 277 278 279 279 280 281 282 282 282
240 241 242 242 243 245 246 248 249 251 253 256 258 260 261 262 264 265 266 267 268 269 270 270 271 272 272 273 273 274 275 276 277 278 278 278 278 279 280 281 283 283 282
240 241 242 243 244 245 247 248 250 252 255 257 259 260 261 263 264 266 267 268 269 269 270 270 271 272 273 273 274 275 276 277 278 279 280 280 279 280 280 281 282 282 281
241 242 243 244 245 246 247 249 251 253 255 257 259 261 262 263 264 265 267 268 269 270 270 271 272 273 273 273 274 275 277 278 279 280 281 282 283 283 282 282 283 283 282
241 242 243 244 246 247 248 250 253 254 256 258 260 262 263 264 265 266 267 268 269 270 271 272 273 273 274 274 275 277 277 279 281 281 282 283 284 284 284 283 283 283 282
241 242 243 245 246 247 249 251 253 255 257 258 260 262 263 264 265 266 268 269 270 271 272 273 273 274 274 275 277 278 279 280 281 282 283 284 284 285 285 284 284 283 282
242 243 245 246 247 248 250 252 254 256 258 259 261 262 264 265 265 266 268 269 270 271 272 273 273 274 275 276 277 278 279 281 282 283 283 284 285 285 285 285 285 283 282
243 244 245 247 248 249 250 252 254 256 258 260 262 264 265 266 267 268 269 270 271 271 272 273 274 275 276 277 277 279 280 281 282 283 284 285 286 286 285 286 285 284 283
244 245 246 247 248 249 250 252 254 257 259 262 263 264 266 266 267 268 269 270 271 272 273 273 273 274 276 277 277 278 280 282 282 283 284 286 286 286 286 286 285 285 285
243 245 246 247 248 250 252 254 255 258 260 262 263 264 264 265 266 268 269 270 271 271 273 273 273 274 275 276 276 277 279 281 282 283 284 285 286 286 286 286 286 286 287
243 244 246 247 249 251 253 254 256 259 260 261 262 263 264 265 267 269 271 272 272 272 272 273 273 274 274 275 276 277 278 280 282 283 284 286 286 285 285 285 285 286 287
243 244 246 247 250 253 254 256 258 259 260 260 262 263 264 266 267 269 271 272 273 273 273 273 274 274 275 275 277 277 279 281 282 284 284 285 285 284 284 284 285 285 286
244 246 247 249 251 253 255 257 258 259 259 260 261 263 265 266 267 269 269 271 272 274 273 273 273 274 275 276 277 279 280 281 283 284 284 284 284 284 284 284 284 285 285
246 247 248 250 252 254 255 257 257 259 259 260 262 263 265 266 267 268 269 270 272 273 272 272 272 274 276 276 277 279 281 282 282 283 283 283 284 284 284 283 284 285 286
247 248 250 251 253 255 256 257 258 259 260 261 263 264 265 266 266 267 268 270 271 271 271 272 273 275 276 277 279 280 281 282 282 282 282 282 283 284 284 285 286 286 286
247 248 249 251 253 255 256 256 258 259 261 262 263 264 265 265 266 267 268 270 270 270 271 272 274 276 277 279 281 282 283 282 282 281 282 282 282 284 285 285 286 286 286
246 247 247 249 251 253 255 256 258 259 261 262 263 264 265 265 266 268 269 270 270 271 272 274 275 276 278 279 281 282 282 281 281 281 281 281 282 284 285 285 286 287 288
244 245 246 249 251 253 255 257 258 259 261 263 263 264 264 265 267 268 269 270 271 273 274 275 276 276 277 278 280 280 279 280 281 281 281 281 282 283 284 285 286 286 286
244 245 246 249 251 253 255 257 258 260 262 263 263 263 264 266 267 267 268 270 272 273 274 275 276 276 277 278 279 278 279 279 280 280 281 281 282 282 283 284 285 285 285
245 247 249 250 252 253 255 257 258 260 261 263 263 264 265 266 267 267 268 270 271 273 274 274 275 276 277 277 277 278 279 279 280 281 281 282 283 282 283 284 284 284 284
247 248 250 252 253 255 256 258 259 260 262 263 263 265 266 267 267 267 268 269 271 273 273 274 274 275 275 276 277 278 279 279 280 280 281 282 282 282 283 284 284 283 283
252 252 253 254 255 256 258 259 260 261 261 262 263 265 266 266 266 267 268 269 271 271 272 273 273 273 274 275 277 278 279 280 280 281 281 282 283 284 284 284 283 281 281
253 254 255 256 256 258 260 261 261 261 262 263 264 265 266 266 266 267 268 269 270 271 271 271 272 273 275 276 278 279 280 280 281 281 282 283 283 284 285 284 281 280 280
253 254 256 257 259 259 260 260 260 261 262 263 264 265 266 266 266 267 268 270 272 272 273 273 274 275 276 276 277 279 280 280 280 281 283 283 284 285 284 282 281 281 280
253 254 256 258 260 260 261 260 260 261 262 263 264 264 265 265 267 267 269 271 272 273 273 275 276 276 276 277 278 279 280 280 280 281 283 284 284 283 282 282 281 281 281
255 256 257 258 259 260 260 261 261 261 262 263 263 264 265 265 267 268 268 270 272 273 273 275 276 276 277 277 277 279 280 281 282 283 285 284 282 281 281 282 281 282 282
Height
5743 5746 5749 5752 5755 5758 5760 5763 5764 5766 5768 5769 5771 5772 5773 5774 5775 5775 5775 5776 5776 5776 5776 5776 5775 5775 5775 5774 5774 5773 5772 5771 5770 5769 5768 5767 5765 5763 5761 5759 5757 5754 5752
5734 5738 5741 5744 5747 5750 5752 5754 5756 5758 5759 5761 5762 5763 5764 5765 5766 5766 5767 5767 5767 5766 5766 5766 5766 5765 5765 5764 5763 5762 5762 5760 5759 5757 5756 5756 5756 5754 5751 5748 5745 5742 5739
5725 5729 5732 5735 5738 5741 5743 5745 5747 5749 5750 5752 5753 5754 5755 5756 5757 5757 5757 5757 5757 5756 5756 5756 5755 5755 5754 5753 5753 5752 5751 5750 5748 5745 5744 5742 5742 5741 5740 5736 5733 5730 5727
5716 5720 5723 5726 5729 5732 5734 5736 5738 5739 5741 5742 5743 5744 5746 5747 5747 5747 5747 5747 5746 5746 5746 5745 5744 5744 5743 5742 5742 5740 5740 5738 5736 5734 5731 5729 5727 5725 5725 5724 5720 5716 5713
5707 5710 5714 5717 5719 5722 5724 5726 5728 5730 5731 5733 5734 5735 5735 5736 5736 5737 5737 5736 5736 5735 5735 5734 5733 5733 5732 5731 5730 5729 5728 5726 5724 5722 5719 5717 5714 5711 5708 5708 5708 5704 5701
5697 5700 5703 5706 5709 5712 5714 5716 5718 5720 5721 5722 5723 5724 5725 5725 5726 5726 5726 5725 5725 5724 5724 5723 5722 5721 5720 5719 5718 5717 5716 5714 5711 5709 5706 5704 5701 5698 5695 5693 5693 5691 5689
5687 5690 5693 5696 5699 5702 5704 5706 5708 5709 5711 5712 5713 5713 5713 5714 5714 5714 5714 5714 5713 5712 5712 5711 5710 5710 5709 5708 5706 5705 5703 5701 5699 5696 5693 5690 5688 5684 5681 5679 5677 5676 5676
5676 5679 5682 5685 5688 5691 5693 5695 5697 5699 5700 5701 5701 5701 5701 5701 5701 5701 5701 5701 5701 5700 5700 5699 5698 5697 5696 5695 5694 5692 5690 5688 5686 5683 5680 5677 5674 5671 5668 5665 5662 5661 5662
5665 5668 5671 5674 5677 5680 5682 5684 5686 5688 5688 5689 5689 5689 5689 5689 5688 5688 5688 5688 5688 5688 5687 5686 5686 5685 5684 5682 5681 5680 5678 5675 5673 5671 5667 5664 5661 5658 5655 5651 5648 5646 5645
5654 5657 5660 5663 5666 5669 5671 5673 5675 5676 5677 5677 5677 5677 5677 5677 5676 5676 5675 5675 5674 5674 5674 5673 5672 5672 5671 5669 5669 5668 5666 5663 5661 5658 5655 5652 5648 5645 5642 5639 5636 5632 5630
5643 5647 5650 5653 5655 5658 5660 5662 5664 5665 5665 5665 5665 5665 5665 5665 5665 5664 5663 5662 5661 5661 5660 5660 5659 5659 5658 5657 5656 5655 5653 5651 5648 5646 5642 5639 5636 5633 5629 5626 5623 5620 5617
5633 5636 5640 5642 5645 5647 5649 5651 5652 5653 5654 5654 5654 5654 5654 5653 5653 5653 5651 5650 5649 5649 5648 5647 5647 5646 5646 5645 5643 5642 5640 5638 5636 5633 5630 5627 5623 5620 5617 5614 5611 5608 5605
5623 5626 5629 5632 5634 5636 5638 5640 5641 5642 5642 5642 5643 5642 5642 5642 5642 5641 5640 5639 5638 5637 5636 5636 5635 5635 5634 5633 5631 5630 5628 5626 5623 5621 5617 5614 5611 5608 5605 5601 5598 5596 5593
5612 5616 5619 5621 5623 5625 5627 5629 5630 5631 5631 5631 5632 5631 5631 5631 5630 5630 5629 5628 5627 5626 5626 5625 5624 5623 5622 5621 5619 5617 5616 5613 5611 5608 5605 5602 5599 5595 5592 5590 5587 5584 5582
5602 5605 5608 5610 5613 5614 5616 5618 5619 5619 5620 5620 5621 5621 5620 5620 5619 5619 5618 5617 5616 5616 5615 5614 5613 5612 5611 5610 5608 5606 5604 5601 5599 5596 5593 5590 5587 5584 5581 5578 5576 5573 5571
5591 5594 5597 5599 5602 5604 5605 5607 5608 5609 5609 5610 5610 5610 5610 5609 5609 5608 5608 5607 5606 5605 5605 5604 5603 5602 5600 5598 5596 5594 5592 5590 5587 5585 5582 5580 5577 5574 5571 5568 5565 5562 5560
5581 5583 5586 5588 5591 5593 5595 5596 5597 5598 5598 5599 5599 5599 5599 5599 5599 5598 5597 5596 5596 5595 5594 5593 5592 5591 5589 5587 5585 5582 5580 5578 5576 5573 5571 5569 5566 5563 5560 5558 5555 5553 5550
5570 5573 5575 5578 5580 5582 5584 5585 5586 5587 5588 5588 5588 5588 5588 5588 5588 5587 5587 5586 5585 5584 5583 5582 5581 5580 5578 5576 5574 5571 5569 5567 5565 5562 5560 5558 5556 5553 5550 5548 5546 5543 5541
5560 5563 5565 5567 5569 5571 5573 5574 5575 5576 5577 5577 5578 5578 5578 5578 5577 5576 5576 5575 5574 5574 5572 5571 5570 5569 5567 5564 5562 5560 5558 5556 5554 5552 5550 5547 5545 5543 5540 5538 5536 5534 5532
5550 5553 5555 5557 5559 5561 5562 5563 5565 5565 5566 5567 5567 5567 5567 5567 5566 5566 5565 5564 5563 5563 5561 5560 5559 5557 5556 5553 5551 5549 5547 5546 5544 5542 5540 5537 5535 5532 5530 5528 5526 5525 5524
5541 5543 5545 5547 5549 5550 5552 5553 5554 5555 5555 5556 5556 5556 5556 5556 5555 5555 5554 5554 5553 5552 5551 5550 5548 5547 5545 5543 5541 5539 5537 5535 5533 5531 5529 5527 5524 5522 5520 5518 5516 5515 5513
5531 5533 5535 5537 5538 5540 5541 5542 5543 5544 5544 5545 5545 5545 5545 5545 5545 5545 5544 5543 5542 5541 5540 5539 5538 5536 5535 5533 5531 5529 5527 5524 5522 5521 5519 5517 5515 5513 5511 5509 5507 5506 5504
5521 5523 5525 5526 5528 5529 5530 5531 5532 5533 5534 5534 5534 5534 5534 5534 5534 5534 5533 5533 5532 5531 5530 5529 5528 5527 5526 5524 5522 5519 5517 5514 5512 5511 5509 5507 5505 5503 5501 5500 5498 5497 5495
5512 5513 5515 5516 5517 5518 5520 5521 5522 5522 5523 5523 5523 5523 5524 5523 5523 5523 5523 5522 5522 5521 5520 5519 5519 5518 5516 5514 5512 5510 5508 5505 5503 5501 5499 5497 5496 5494 5492 5491 5489 5488 5487
5502 5504 5505 5506 5507 5508 5509 5510 5511 5512 5512 5513 5513 5513 5513 5513 5514 5513 5513 5513 5512 5511 5511 5510 5509 5508 5506 5505 5503 5501 5499 5496 5494 5492 5490 5489 5487 5485 5484 5482 5481 5480 5479
5492 5494 5495 5496 5497 5498 5499 5499 5500 5501 5502 5503 5503 5503 5504 5504 5504 5504 5504 5503 5502 5502 5501 5500 5499 5498 5497 5495 5494 5492 5490 5488 5486 5484 5482 5480 5479 5477 5476 5475 5473 5472 5471